Flag for U.S.A. Weather past 2 weeks in Charlottesville, Virginia, U.S.A.

Now
80 °F

Partly sunny.


Feels Like: 80 °F
Forecast: 66 / 82 °F
Wind: 8 mph from Northwest

Location: Charlottesville-Albemarle Airport

Current Time: Jul 28, 2014 at 3:00:49 PM

Latest Report: Jul 28, 2014 at 1:53 PM


Visibility: 10 mi

Pressure: 29.72 "Hg

Humidity: 42%

Dew point: 55 °F

Location of CharlottesvilleLocation

Historic Weather in Charlottesville — Graph

°F

Charlottesville temperature yesterday

Maximum temperature yesterday: 82 °F (at 5:53 PM)
Minimum temperature yesterday: 69 °F (at 6:53 AM)
Average temperature yesterday: 75 °F

Past Weeks' High & Low Weather Summary

 TemperatureHumidityPressure
High92 °F (Jul 23, 2:53 PM)100% (Jul 24, 9:53 PM)30.23 "Hg (Jul 24, 9:53 PM)
Low60 °F (Jul 18, 4:53 AM)37% (Jul 17, 3:53 PM)29.60 "Hg (Jul 28, 2:53 AM)
Average74 °F75%29.98 "Hg
* Reported Jul 13 1:53 PM — Jul 28 1:53 PM, Charlottesville, Weather by CustomWeather, © 2014

Note: Actual official high and low records may vary slightly from our data, if they occured in-between our weather recording intervals... More about our weather records

Advertising

Charlottesville weather history for previous 24 hours

 ConditionsComfort  
Time TempWeatherWind HumidityBarometerVisibility
1:53 PM
Jul 28
80 °FPartly sunny.8 mph42%29.72 "Hg10 mi
12:53 PM80 °FScattered clouds.8 mph44%29.72 "Hg10 mi
11:53 AM78 °FPartly sunny.6 mph52%29.72 "Hg10 mi
10:53 AM78 °FPartly sunny.7 mph48%29.69 "Hg10 mi
9:53 AM79 °FSunny.6 mph48%29.67 "Hg10 mi
8:53 AM77 °FSunny.5 mph58%29.66 "Hg10 mi
7:53 AM76 °FPassing clouds.9 mph60%29.65 "Hg10 mi
6:53 AM75 °FClear.8 mph62%29.64 "Hg10 mi
5:53 AM74 °FClear.3 mph67%29.64 "Hg10 mi
4:53 AM76 °FClear.5 mph62%29.62 "Hg10 mi
3:53 AM75 °FClear.6 mph64%29.60 "Hg10 mi
2:53 AM77 °FClear.7 mph64%29.60 "Hg10 mi
1:53 AM75 °FClear.6 mph90%29.62 "Hg10 mi
12:53 AM74 °FClear.7 mph94%29.64 "Hg9 mi
11:53 PM
Jul 27
76 °FPassing clouds.No wind88%29.68 "Hg10 mi
10:53 PM76 °FPassing clouds.10 mph88%29.69 "Hg10 mi
9:53 PM78 °FClear.12 mph79%29.70 "Hg10 mi
8:53 PM79 °FScattered clouds.10 mph74%29.70 "Hg10 mi
7:53 PM80 °FSunny.7 mph69%29.72 "Hg10 mi
6:53 PM82 °FSunny.7 mph67%29.73 "Hg10 mi
5:53 PM82 °FSunny.8 mph67%29.72 "Hg10 mi
4:53 PM81 °FPassing clouds.7 mph72%29.74 "Hg10 mi
3:53 PM80 °FSunny.12 mph76%29.76 "Hg10 mi
Weather by CustomWeather, © 2014

See weather overviewHow to use our weather pages